www.pogodaiklimat.ru
ПОГОДА в Абадане
Время
(UTC), дата
03 5.12
06 5.12
09 5.12
12 5.12
15 5.12
18 5.12
21 5.12
00 6.12
03 6.12
06 6.12
09 6.12
12 6.12
15 6.12
18 6.12
21 6.12
00 7.12
03 7.12
06 7.12
09 7.12
12 7.12
15 7.12
18 7.12
21 7.12
00 8.12
03 8.12
06 8.12
09 8.12
12 8.12
15 8.12
18 8.12
21 8.12
00 9.12
03 9.12
06 9.12
09 9.12
12 9.12
15 9.12
18 9.12
21 9.12
00 10.12
03 10.12
06 10.12
09 10.12
12 10.12
15 10.12
18 10.12
21 10.12
00 11.12
03 11.12
06 11.12
09 11.12
12 11.12
15 11.12
18 11.12
21 11.12
Ветер
(напр.,м/с)
Видим. Явления Облачность Т
(С)
Тd
(С)
f
(%)
Тe
(С)
Тes
(С)
Комфортность P
(гПа)
Po
(гПа)
Тmin
(С)
Tmax
(С)
R
(мм)
R24
(мм)
S
(см)
З 1 2000 м дымка ясно +11.6 +10.4 92 +11 +11 1021.8 1021.0 +11.6 666 616.2
З 1 200 м туман поземный ясно +12.6 +12.1 97 +12 +17 1023.6 1022.8
З 3 8000 м мгла ясно +19.5 +8.8 50 +21 +27 комфорт 1022.0 1021.1
С 4 10 км ясно +20.1 +10.0 52 +22 +23 комфорт 1020.0 1019.2
СВ 2 10 км ясно +17.2 +10.7 66 +18 +18 1020.8 1019.9 +20.9 666 606.2
СВ 2 8000 м мгла ясно +15.0 +11.1 77 +15 +15 1021.6 1020.7 0.3 26.2
СВ 1 1200 м дымка ясно +13.6 +12.2 91 +14 +14 1021.2 1020.3
В 3 1000 м дымка ясно +13.7 +12.5 92 +12 +12 1020.6 1019.8 1 70.6
В 2 2000 м дымка 1/0
[Ac trans]
+13.0 +11.7 92 +12 +12 1021.3 1020.5 +13.0 666 227.7
В 5 3000 м мгла ясно +14.2 +10.8 80 +13 +14 1021.7 1020.9
В 6 6000 м мгла 9/9 1050 м
[Cb calv]
+17.1 +12.3 73 +16 +17 1018.9 1018.0
В 5 8000 м мгла 10/10 900 м
[Cb calv]
+20.4 +14.0 67 +23 +23 комфорт 1015.6 1014.8 0.1 27.6
ЮВ 4 8000 м дымка 6/4 1050 м
[Cb calv Ac As]
+20.5 +17.3 82 +24 +24 комфорт 1015.8 1015.0 +20.7 666
В 2 5000 м слаб. дождь 10/5 900 м
[Cb calv As op]
+19.0 +17.3 90 +21 +21 комфорт 1017.8 1016.9 0.4
СВ 2 5000 м слаб. дождь 10/6 900 м
[Cb calv As op]
+19.3 +17.9 92 +22 +22 комфорт 1017.3 1016.5
В 7 3000 м гроза, ливневой дождь 10/6 900 м
[Cb cap As op]
+16.0 +15.0 94 +14 +14 1016.9 1016.1 31
СВ 3 2500 м дождь {гроза} 10/6 900 м
[Cb calv As op]
+14.8 +13.7 93 +14 +14 1018.1 1017.3 +14.4
СВ 8 7000 м дымка {гроза, ливн. осадки} 10/6 900 м
[Cb calv As op]
+16.4 +13.6 84 +15 +15 1019.1 1018.3 5 36.7
В 6 8000 м мгла {дождь} 10/6 900 м
[Cb calv As op]
+17.6 +13.7 78 +17 +17 1017.3 1016.5 666
В 10 8000 м дымка 9/6 900 м
[Cb calv Ac As]
+17.6 +14.5 82 +16 +16 1014.1 1013.4 4
ЮВ 6 7000 м дымка 8/8 900 м
[Cb calv]
+17.4 +14.3 82 +17 +17 1014.3 1013.6 +18.0 666
ЮВ 3 7000 м мгла 4/4 1050 м
[Sc]
+17.0 +12.3 74 +17 +17 1015.0 1014.3
ЮВ 2 5000 м дымка 3/3 900 м
[Sc]
+16.4 +14.7 90 +16 +16 1014.8 1014.1
СЗ 4 3000 м дымка ясно +15.8 +14.8 94 +15 +15 1014.8 1014.1
СЗ 3 2500 м дымка 5/0
[Ac trans]
+13.6 +12.5 93 +12 +12 1015.8 1015.1 +13.6 666
СЗ 3 200 м туман поземный ?/? +14.0 +14.0 100 +13 +13 1018.5 1017.8 3.6
З 5 5000 м мгла 4/4 750 м
[Cu Sc]
+16.0 +12.4 79 +15 +17 1018.5 1017.8
СЗ 4 5000 м 5/5 750 м
[Cb calv]
+17.0 +13.0 77 +17 +17 1017.1 1016.4
СЗ 3 10 км ясно +15.2 +9.4 68 +15 +15 1017.6 1016.9 +17.0 666 602.2
штиль 0 6000 м дымка 3/0
[Ci fib]
+12.6 +10.7 88 +12 +12 1019.2 1018.4
штиль 0 4000 м дымка ясно +10.8 +10.0 95 +10 +10 1019.5 1018.7
штиль 0 4000 м дымка ясно +10.0 +8.3 89 +9 +9 1019.3 1018.8
В 2 1200 м дымка ясно +10.0 +9.2 95 +8 +8 1019.8 1019.0 +9.0 666 102.2
штиль 0 3000 м дымка ясно +13.6 +10.9 84 +13 +18 1021.7 1020.9 0.7
З 2 7000 м мгла ясно +17.0 +13.1 78 +17 +25 1021.6 1020.8
СВ 3 10 км 1/1 1200 м
[Cu hum]
+17.4 +9.8 61 +17 +19 1019.5 1018.7
СВ 3 10 км ясно +15.2 +8.9 66 +15 +15 1020.4 1019.6 +1.0 666
СВ 1 10 км ясно +14.0 +10.1 77 +14 +14 1021.3 1020.5
СВ 1 10 км ясно +13.0 +9.0 77 +13 +13 1021.1 1020.2
С 1 10 км ясно +11.0 +10.2 95 +11 +11 1020.5 1019.7
СВ 1 10 км ясно +11.0 +9.0 87 +11 +11 1020.1 1019.3 +10.5 10.2
СВ 3 5000 м мгла 6/0
[Ac As]
+13.0 +7.7 70 +12 +13 1020.3 1019.5 0.0
СВ 3 7000 м мгла 8/0
[Ac As]
+17.4 +8.4 55 +17 +20 1019.0 1018.2 666 52.1
СВ 4 10 км 8/4 1200 м
[Sc Ac As]
+17.4 +8.4 55 +17 +18 1017.9 1017.1 52.2
С 2 10 км 8/4 1200 м
[Sc Ac As]
+15.8 +10.1 69 +16 +16 1016.6 1015.8 +17.8
штиль 0 10 км 8/3 1200 м
[Sc Ac trans]
+14.6 +11.6 82 +14 +14 1017.4 1016.6
СЗ 1 10 км 5/0
[Ac trans]
+13.6 +11.7 88 +14 +14 1017.4 1016.6
С 1 10 км 5/0
[Ac trans]
+13.0 +11.1 88 +13 +13 1017.4 1016.6 102.2
СЗ 2 10 км 4/0
[Ac trans]
+13.0 +9.5 79 +12 +12 1017.4 1016.6 +12.6 666 474.2
СЗ 4 4000 м дымка ясно +14.4 +11.0 80 +13 +15 1019.4 1018.6
СЗ 5 10 км ясно +18.8 +6.8 46 +19 +23 1018.4 1017.6
С 5 10 км ясно +20.4 +6.0 39 +21 +22 комфорт 1017.0 1016.2
С 2 10 км ясно +17.6 +10.1 61 +18 +18 1017.0 1016.1 +20.4 666 102.2
З 2 10 км ясно +14.4 +10.2 76 +14 +14 1017.9 1017.1 102.2
штиль 0 6000 м дымка ясно +13.2 +10.5 84 +13 +13 1017.9 1017.1
Местоположение метеостанции Абадан (Иран): широта 30.37 долгота 48.25 высота над уровнем моря 6 м.
В архиве по умолчанию представлена погода в Абадане за последнюю неделю. Архивные данные за месяц целиком и за предыдущие месяцы, начиная с января 2011 года, Вы можете получить, выбрав интересующий диапазон дат из раскрывающегося списка и нажав кнопку "Найти!".
*Определитесь, кто Вы:
Внимание! Время в таблицах - всемирное. Для получения местного времени необходимо прибавить поправку, которая равна 3.5 ч.
Смотрите также архив погоды в соседних городах и на ближайших метеорологических станциях:
Партнеры нашего сайта:      
Пояснения к столбцам:
  • Ветер - указаны скорость ветра в м/с - средняя за 10 мин, порывы в срок и между сроками (в фигурных скобках) и направление, откуда дует ветер: С - северный,
  • СВ - северо-восточный, В - восточный, ЮВ - юго-восточный, Ю - южный, ЮЗ - юго-западный, З - западный, СЗ - северо-западный.
  • Видимость - горизонтальная дальность видимости в метрах или километрах. При видимости от 1 до 10 км при отсутствии осадков обычно наблюдается дымка, при ухудшении видимости до 1 км и менее - туман. В сухую погоду видимость может ухудшаться дымом, пылью или мглою.
  • Явления - указаны атмосферные явления, наблюдавшиеся в срок или в последний час перед сроком; фигурными скобками обозначены явления, наблюдавшиеся между сроками (за 1-3 часа до срока); квадратными скобками обозначены град или гололедные отложения с указанием их диаметра в мм.
  • Облачность - указаны через наклонную черту общая и нижняя облачность в баллах и высота нижней границы облаков в метрах; квадратными скобками обозначены формы облаков: Ci - перистые, Cs - перисто-слоистые, Cc - перисто-кучевые, Ac - высококучевые, As - высокослоистые, Sc - слоисто-кучевые, Ns - слоисто-дождевые, Cu - кучевые, Cb - кучево-дождевые. Подробнее классификацию облаков см. в Атласе облаков (PDF).
  • T - Температура воздуха - температура, измеренная на высоте 2 м над землей.
  • Td - Температура точки росы - температура, при понижении до которой содержащийся в воздухе водяной пар достигнет насыщения.
  • f - Относительная влажность воздуха - влажноcть воздуха, измеренная на высоте 2 м над землей.
  • Te - Эффективная температура - температура, которую ощущает одетый по сезону человек в тени. Характеристика душности погоды. При расчете учитывается влияние влажности воздуха и скорости ветра на теплоощущения человека.
  • Tes - Эффективная температура на солнце - температура, которую ощущает человек, с поправкой на солнечный нагрев. Характеристика знойности погоды. Зависит от высоты солнца над горизонтом, облачности и скорости ветра. Ночью, в пасмурную погоду, а также при ветре 12 м/с и более поправка равна нулю.
  • P - Атмосферное давление - приведенное к уровню моря атмосферное давление.
  • Po - Атмосферное давление - измеренное на уровне метеостанции атмосферное давление.
  • Tmin - Минимальная температура - минимум температуры воздуха на высоте 2 м над землей.
  • Tmax - Максимальная температура - максимум температуры воздуха на высоте 2 м над землей.
  • R - Количество осадков - Количество выпавших осадков за период времени, мм. При наведении курсора мыши на число - период времени, за который выпало указанное количество осадков.
  • R24 - Количество осадков - Количество выпавших осадков за 24 часа, мм.
  • S - Снежный покров - Высота снежного покрова, см. При наведении курсора мыши на число - состояние снежного покрова и степень покрытия местности в баллах.